#�ϑ�����,���ϕ���,���ϕ���,�ő啗��,�ő啗����������,�ő�u�ԕ���,�ő�u�ԕ�����������
#(�N����),(m/s)   ,(16����),(m/s)   ,(16����)        ,(m/s)       ,(16����)            
2014/1/9 0:01,0.8,5,0.8,5,0.6,13
2014/1/9 0:02,0.9,5,0.9,5,2.5,15
2014/1/9 0:03,1,5,1,5,1.9,16
2014/1/9 0:04,1.3,6,1.3,6,2.9,7
2014/1/9 0:05,1.4,6,1.4,7,2.9,6
2014/1/9 0:06,1.5,6,1.5,6,2.6,7
2014/1/9 0:07,1.4,6,1.5,6,1.6,6
2014/1/9 0:08,1.4,7,1.4,6,1.6,13
2014/1/9 0:09,1.4,9,1.4,6,1.9,11
2014/1/9 0:10,1.4,10,1.4,6,3,10
2014/1/9 0:11,1.6,9,1.6,9,2.9,10
2014/1/9 0:12,1.5,9,1.6,9,1.8,9
2014/1/9 0:13,1.5,9,1.5,9,0.9,6
2014/1/9 0:14,1.4,9,1.5,9,2.7,9
2014/1/9 0:15,1.4,9,1.4,9,2.5,9
2014/1/9 0:16,1.3,10,1.4,9,1.9,9
2014/1/9 0:17,1.3,10,1.3,9,1.5,9
2014/1/9 0:18,1.3,9,1.3,9,1.9,9
2014/1/9 0:19,1.2,9,1.3,9,0.9,12
2014/1/9 0:20,1,9,1.2,9,1,14
2014/1/9 0:21,0.9,10,1,9,1.1,16
2014/1/9 0:22,0.9,9,0.9,9,1.9,7
2014/1/9 0:23,1,9,1,9,2.2,7
2014/1/9 0:24,0.9,9,1,9,1.4,7
2014/1/9 0:25,0.8,9,0.9,9,0.8,9
2014/1/9 0:26,0.8,8,0.8,10,2.4,8
2014/1/9 0:27,0.9,8,0.9,10,2.4,7
2014/1/9 0:28,1,8,1,9,3,6
2014/1/9 0:29,1.2,7,1.2,9,3.3,6
2014/1/9 0:30,1.3,7,1.3,7,3.6,6
2014/1/9 0:31,1.5,7,1.5,7,3.1,8
2014/1/9 0:32,1.5,7,1.5,7,2.4,7
2014/1/9 0:33,1.3,7,1.4,7,0.9,7
2014/1/9 0:34,1.3,7,1.3,7,1.8,7
2014/1/9 0:35,1.4,7,1.4,7,1.3,6
2014/1/9 0:36,1.3,7,1.4,7,1.3,4
2014/1/9 0:37,1.3,7,1.3,7,2,7
2014/1/9 0:38,1.2,7,1.3,7,1.8,7
2014/1/9 0:39,1.2,7,1.2,7,2.2,7
2014/1/9 0:40,1.2,7,1.2,7,2.2,9
2014/1/9 0:41,1.2,7,1.2,7,2.9,9
2014/1/9 0:42,1.2,8,1.2,7,2.2,9
2014/1/9 0:43,1.3,8,1.3,7,2.5,10
2014/1/9 0:44,1.4,8,1.4,7,3.1,10
2014/1/9 0:45,1.4,9,1.5,9,1.9,12
2014/1/9 0:46,1.5,9,1.5,9,1.9,15
2014/1/9 0:47,1.5,10,1.5,9,1.5,16
2014/1/9 0:48,1.5,11,1.5,9,2,3
2014/1/9 0:49,1.5,11,1.5,9,2.7,4
2014/1/9 0:50,1.6,12,1.6,12,3.1,4
2014/1/9 0:51,1.6,2,1.6,12,2.6,5
2014/1/9 0:52,1.6,3,1.6,12,2.5,5
2014/1/9 0:53,1.6,4,1.6,12,2,6
2014/1/9 0:54,1.5,4,1.6,12,1.9,7
2014/1/9 0:55,1.5,4,1.5,12,0.9,8
2014/1/9 0:56,1.4,5,1.5,12,0.6,7
2014/1/9 0:57,1.3,5,1.4,12,1.3,1
2014/1/9 0:58,1.3,5,1.3,12,1.5,3
2014/1/9 0:59,1.3,5,1.3,12,3,3
2014/1/9 1:00,1.4,4,1.4,12,3.5,3
2014/1/9 1:01,1.4,4,1.5,2,3.3,3
2014/1/9 1:02,1.5,4,1.5,3,2.9,5
2014/1/9 1:03,1.5,4,1.5,4,2.7,4
2014/1/9 1:04,1.6,4,1.6,4,3.1,3
2014/1/9 1:05,1.7,3,1.7,3,3.6,3
2014/1/9 1:06,1.8,3,1.8,3,2.5,4
2014/1/9 1:07,1.9,3,1.9,3,2.6,5
2014/1/9 1:08,1.9,4,1.9,3,1.6,3
2014/1/9 1:09,1.8,4,1.9,3,0.5,6
2014/1/9 1:10,1.5,4,1.7,3,1.3,6
2014/1/9 1:11,1.4,4,1.5,3,1.8,6
2014/1/9 1:12,1.3,4,1.4,3,1.4,5
2014/1/9 1:13,1.2,4,1.3,3,0.8,1
2014/1/9 1:14,1.1,4,1.1,3,1.8,3
2014/1/9 1:15,1,4,1.1,3,2,4
2014/1/9 1:16,1,4,1,3,1.9,4
2014/1/9 1:17,0.9,4,1,4,1.6,4
2014/1/9 1:18,0.9,5,0.9,4,1.6,7
2014/1/9 1:19,0.9,4,0.9,4,0.5,8
2014/1/9 1:20,0.9,4,1,4,0.6,1
2014/1/9 1:21,0.8,4,0.9,4,0.8,13
2014/1/9 1:22,0.8,5,0.8,4,1.3,8
2014/1/9 1:23,0.8,5,0.8,4,1,3
2014/1/9 1:24,0.8,5,0.8,4,1.5,8
2014/1/9 1:25,0.9,6,0.9,4,3.5,8
2014/1/9 1:26,1,7,1,4,3.1,8
2014/1/9 1:27,1,7,1,4,2,8
2014/1/9 1:28,1,7,1,4,2.6,8
2014/1/9 1:29,1.1,7,1.1,7,1.9,8
2014/1/9 1:30,1.3,8,1.3,8,2.5,8
2014/1/9 1:31,1.4,8,1.4,8,2.9,9
2014/1/9 1:32,1.5,8,1.5,8,2.7,8
2014/1/9 1:33,1.6,8,1.6,8,2.7,9
2014/1/9 1:34,1.7,8,1.7,8,2.5,8
2014/1/9 1:35,1.6,8,1.7,8,2.5,8
2014/1/9 1:36,1.5,8,1.6,8,2.4,8
2014/1/9 1:37,1.5,8,1.5,8,1.8,9
2014/1/9 1:38,1.4,8,1.5,8,1,9
2014/1/9 1:39,1.3,8,1.4,8,0.6,5
2014/1/9 1:40,1.2,8,1.3,8,0.8,5
2014/1/9 1:41,1.1,8,1.2,8,1.4,3
2014/1/9 1:42,1.1,7,1.1,8,2.4,3
2014/1/9 1:43,1.1,6,1.1,8,2.5,3
2014/1/9 1:44,1.1,6,1.1,8,1.9,3
2014/1/9 1:45,1,5,1.1,8,0.9,4
2014/1/9 1:46,0.9,4,0.9,8,1,3
2014/1/9 1:47,0.9,4,0.9,8,1.4,1
2014/1/9 1:48,0.9,3,0.9,8,1.6,15
2014/1/9 1:49,1,2,1,8,1,16
2014/1/9 1:50,1,2,1,8,1.3,3
2014/1/9 1:51,1,2,1,8,1.4,3
2014/1/9 1:52,1,2,1,7,2,16
2014/1/9 1:53,0.9,1,1,6,2.2,15
2014/1/9 1:54,0.9,1,0.9,6,1.5,15
2014/1/9 1:55,0.9,16,0.9,3,2,16
2014/1/9 1:56,1,16,1,3,2.9,16
2014/1/9 1:57,1,16,1,3,2.1,15
2014/1/9 1:58,1,16,1.1,16,2.6,11
2014/1/9 1:59,1.1,16,1.1,16,1.6,1
2014/1/9 2:00,1,16,1.1,16,0.9,1
2014/1/9 2:01,1,15,1,16,0.9,14
2014/1/9 2:02,0.9,15,0.9,16,1.6,16
2014/1/9 2:03,0.8,16,0.9,16,0.9,1
2014/1/9 2:04,0.9,1,0.9,16,1.8,3
2014/1/9 2:05,0.9,1,0.9,16,1.8,3
2014/1/9 2:06,0.9,2,1,16,1.9,3
2014/1/9 2:07,1,2,1,16,3,3
2014/1/9 2:08,1.1,2,1.1,16,3.5,4
2014/1/9 2:09,1.1,2,1.2,2,2.1,6
2014/1/9 2:10,1.2,2,1.2,2,2.6,16
2014/1/9 2:11,1.3,2,1.3,2,1.5,15
2014/1/9 2:12,1.3,3,1.3,2,1.1,5
2014/1/9 2:13,1.3,3,1.3,2,1.1,5
2014/1/9 2:14,1.3,3,1.3,2,2.2,5
2014/1/9 2:15,1.3,3,1.3,2,2.2,4
2014/1/9 2:16,1.4,3,1.4,3,2.1,3
2014/1/9 2:17,1.3,3,1.4,3,1.9,4
2014/1/9 2:18,1.2,3,1.3,3,1.6,3
2014/1/9 2:19,1.2,3,1.2,3,1.5,4
2014/1/9 2:20,1.1,3,1.2,3,0.8,1
2014/1/9 2:21,1.1,3,1.1,3,1.4,2
2014/1/9 2:22,1.1,3,1.1,3,1.5,4
2014/1/9 2:23,1.2,3,1.2,3,1.6,3
2014/1/9 2:24,1.2,3,1.2,3,1.8,3
2014/1/9 2:25,1.1,3,1.2,3,1.5,3
2014/1/9 2:26,1.1,3,1.1,3,1.6,5
2014/1/9 2:27,1,3,1.1,3,1,5
2014/1/9 2:28,0.9,3,1,3,0.9,4
2014/1/9 2:29,0.8,3,0.9,3,0.6,14
2014/1/9 2:30,0.8,3,0.8,3,0.9,5
2014/1/9 2:31,0.9,3,0.9,3,1.6,5
2014/1/9 2:32,0.9,4,0.9,3,1.8,5
2014/1/9 2:33,0.9,4,0.9,3,1.1,6
2014/1/9 2:34,0.8,5,0.9,3,1,6
2014/1/9 2:35,0.7,5,0.8,3,1.5,8
2014/1/9 2:36,0.7,6,0.7,3,2.1,8
2014/1/9 2:37,0.7,6,0.7,3,1.1,8
2014/1/9 2:38,0.7,6,0.7,3,0.5,14
2014/1/9 2:39,0.7,6,0.7,3,0.9,4
2014/1/9 2:40,0.7,6,0.8,3,1,5
2014/1/9 2:41,0.8,6,0.8,3,2.5,5
2014/1/9 2:42,0.8,6,0.8,4,2.5,5
2014/1/9 2:43,0.9,6,0.9,4,2.1,5
2014/1/9 2:44,1,6,1,6,2.4,5
2014/1/9 2:45,1,6,1,6,1.8,6
2014/1/9 2:46,1,5,1,6,2,5
2014/1/9 2:47,1.1,5,1.1,5,3.1,6
2014/1/9 2:48,1.2,5,1.2,5,2.9,5
2014/1/9 2:49,1.4,5,1.4,5,2.1,5
2014/1/9 2:50,1.5,5,1.5,5,2.7,6
2014/1/9 2:51,1.6,5,1.6,5,2.7,6
2014/1/9 2:52,1.6,5,1.6,5,3,5
2014/1/9 2:53,1.6,5,1.6,5,3.1,6
2014/1/9 2:54,1.5,5,1.6,5,1.9,5
2014/1/9 2:55,1.5,5,1.5,5,1,2
2014/1/9 2:56,1.5,5,1.5,5,1.6,16
2014/1/9 2:57,1.4,4,1.5,5,1.4,16
2014/1/9 2:58,1.3,5,1.4,5,1.6,1
2014/1/9 2:59,1.2,5,1.3,5,1.3,8
2014/1/9 3:00,1.1,5,1.2,5,1.3,9
2014/1/9 3:01,1,4,1.1,5,1,4
2014/1/9 3:02,0.8,3,0.9,5,0.9,2
2014/1/9 3:03,0.7,3,0.8,5,0.9,2
2014/1/9 3:04,0.6,3,0.7,5,0.9,2
2014/1/9 3:05,0.7,3,0.7,5,0.9,5
2014/1/9 3:06,0.6,4,0.7,5,1.4,6
2014/1/9 3:07,0.7,4,0.7,4,1.4,6
2014/1/9 3:08,0.7,5,0.7,5,0.6,8
2014/1/9 3:09,0.6,4,0.7,5,0.5,5
2014/1/9 3:10,0.6,5,0.6,5,0.8,12
2014/1/9 3:11,0.6,6,0.6,4,2.4,9
2014/1/9 3:12,0.6,6,0.6,3,2.2,9
2014/1/9 3:13,0.6,7,0.6,3,1.3,9
2014/1/9 3:14,0.6,7,0.6,3,1.3,5
2014/1/9 3:15,0.7,8,0.7,3,2.1,6
2014/1/9 3:16,0.7,8,0.7,4,1.4,6
2014/1/9 3:17,0.7,8,0.7,5,1.9,5
2014/1/9 3:18,0.8,7,0.8,7,1.8,6
2014/1/9 3:19,0.9,7,0.9,7,2,6
2014/1/9 3:20,1.1,7,1.1,7,2.7,5
2014/1/9 3:21,1.1,6,1.1,7,1.5,5
2014/1/9 3:22,1.1,6,1.1,7,1.3,4
2014/1/9 3:23,1.1,6,1.1,7,1,4
2014/1/9 3:24,1.2,5,1.2,5,2.2,4
2014/1/9 3:25,1.2,5,1.2,5,2.4,3
2014/1/9 3:26,1.2,4,1.2,5,1.4,16
2014/1/9 3:27,1.1,4,1.2,5,2.4,15
2014/1/9 3:28,1.1,4,1.2,5,2.9,15
2014/1/9 3:29,1.1,3,1.1,5,1.5,1
2014/1/9 3:30,1,3,1.1,5,1.9,16
2014/1/9 3:31,1,2,1,5,1.9,1
2014/1/9 3:32,1,2,1,5,1,4
2014/1/9 3:33,1.1,2,1.1,5,1.9,2
2014/1/9 3:34,1.1,2,1.1,5,2,2
2014/1/9 3:35,1,1,1.1,5,1.9,1
2014/1/9 3:36,1.1,1,1.1,4,1.8,1
2014/1/9 3:37,1.1,1,1.1,4,1.5,2
2014/1/9 3:38,1.1,1,1.1,4,1.8,1
2014/1/9 3:39,1.2,1,1.2,1,2.4,16
2014/1/9 3:40,1.2,1,1.2,1,2,16
2014/1/9 3:41,1.1,1,1.2,1,1.1,2
2014/1/9 3:42,1.1,1,1.1,1,0.9,16
2014/1/9 3:43,1.1,1,1.1,1,1,15
2014/1/9 3:44,1,1,1.1,1,0.6,14
2014/1/9 3:45,0.9,1,1,1,0.9,6
2014/1/9 3:46,0.9,1,0.9,1,1.4,4
2014/1/9 3:47,0.9,1,0.9,1,1.3,5
2014/1/9 3:48,0.8,2,0.9,1,1.4,5
2014/1/9 3:49,0.7,2,0.8,1,0.8,1
2014/1/9 3:50,0.6,2,0.7,1,0.5,3
2014/1/9 3:51,0.5,3,0.6,1,0.5,5
2014/1/9 3:52,0.6,3,0.6,1,0.9,4
2014/1/9 3:53,0.5,3,0.6,1,0.8,16
2014/1/9 3:54,0.6,3,0.6,1,1.6,15
2014/1/9 3:55,0.7,3,0.7,1,2.2,15
2014/1/9 3:56,0.7,2,0.7,1,1.8,15
2014/1/9 3:57,0.6,2,0.7,1,0.5,2
2014/1/9 3:58,0.5,2,0.6,2,0.4,2
2014/1/9 3:59,0.5,2,0.5,2,0.1,3
2014/1/9 4:00,0.5,1,0.5,3,0.8,16
2014/1/9 4:01,0.5,1,0.5,3,0.6,1
2014/1/9 4:02,0.5,16,0.5,3,0,15
2014/1/9 4:03,0.5,16,0.5,3,1,14
2014/1/9 4:04,0.5,16,0.5,3,1,14
2014/1/9 4:05,0.4,1,0.5,3,1.4,3
2014/1/9 4:06,0.4,1,0.4,2,1.8,10
2014/1/9 4:07,0.5,16,0.5,2,1.9,11
2014/1/9 4:08,0.6,16,0.6,16,2.1,10
2014/1/9 4:09,0.7,16,0.7,16,1.6,16
2014/1/9 4:10,0.8,16,0.8,16,2.6,16
2014/1/9 4:11,0.9,16,0.9,16,1.8,1
2014/1/9 4:12,1,15,1,15,1.8,13
2014/1/9 4:13,1,15,1.1,15,1.4,13
2014/1/9 4:14,1.1,14,1.1,15,1.5,13
2014/1/9 4:15,1.1,14,1.1,15,2.4,13
2014/1/9 4:16,1.2,13,1.2,13,2.5,15
2014/1/9 4:17,1.2,14,1.2,13,1.5,12
2014/1/9 4:18,1.1,14,1.2,13,0.9,14
2014/1/9 4:19,1,14,1.1,13,0.8,14
2014/1/9 4:20,1,14,1,13,1.5,2
2014/1/9 4:21,1,14,1,13,1.8,16
2014/1/9 4:22,1,15,1,13,1.9,1
2014/1/9 4:23,1.2,15,1.2,13,4.1,16
2014/1/9 4:24,1.2,16,1.2,13,2,15
2014/1/9 4:25,1.2,16,1.2,13,1.5,16
2014/1/9 4:26,1.1,16,1.2,13,0.9,15
2014/1/9 4:27,1,16,1.1,14,1.4,16
2014/1/9 4:28,1,16,1,15,0.1,2
2014/1/9 4:29,1,16,1,15,0.6,13
2014/1/9 4:30,1,15,1,15,1.9,15
2014/1/9 4:31,1.1,15,1.1,15,4.2,15
2014/1/9 4:32,1.5,15,1.5,15,8.2,16
2014/1/9 4:33,1.6,15,1.6,15,6.9,15
2014/1/9 4:34,1.6,15,1.6,15,4.7,14
2014/1/9 4:35,1.7,15,1.7,15,5,15
2014/1/9 4:36,2,15,2,15,6.3,15
2014/1/9 4:37,2.2,15,2.2,15,5.5,16
2014/1/9 4:38,2.5,15,2.5,15,4.5,16
2014/1/9 4:39,2.8,15,2.8,15,4.9,14
2014/1/9 4:40,3,15,3,15,5.1,15
2014/1/9 4:41,3.1,15,3.1,15,5.5,16
2014/1/9 4:42,2.9,15,3.2,15,4.8,16
2014/1/9 4:43,2.7,16,2.8,15,3.2,3
2014/1/9 4:44,2.8,16,2.8,15,3.7,3
2014/1/9 4:45,2.7,16,2.8,15,1.6,5
2014/1/9 4:46,2.4,16,2.7,15,1.8,6
2014/1/9 4:47,2.2,16,2.4,15,1.8,8
2014/1/9 4:48,2.1,1,2.2,15,3.2,8
2014/1/9 4:49,2,2,2.1,15,1.9,8
2014/1/9 4:50,1.7,5,1.9,15,1.5,5
2014/1/9 4:51,1.4,6,1.7,15,1.3,4
2014/1/9 4:52,1.3,6,1.4,15,1.3,4
2014/1/9 4:53,1.2,7,1.3,16,2.2,14
2014/1/9 4:54,1,8,1.2,16,1.5,13
2014/1/9 4:55,1,8,1,16,1,12
2014/1/9 4:56,1,7,1,16,2.2,3
2014/1/9 4:57,1.1,6,1.1,16,3,16
2014/1/9 4:58,1.1,2,1.1,1,4.4,15
2014/1/9 4:59,1.3,1,1.3,3,7.4,16
2014/1/9 5:00,1.8,16,1.8,16,9,16
2014/1/9 5:01,2.1,15,2.1,15,8.9,15
2014/1/9 5:02,2.6,15,2.6,15,9.7,16
2014/1/9 5:03,3,16,3,16,8.3,16
2014/1/9 5:04,3.5,16,3.5,16,8.9,15
2014/1/9 5:05,3.8,16,3.8,16,6.8,16
2014/1/9 5:06,4.1,16,4.1,16,6.4,16
2014/1/9 5:07,4.3,16,4.3,16,5,16
2014/1/9 5:08,4.4,16,4.4,16,4.8,1
2014/1/9 5:09,4.4,16,4.5,16,6.4,16
2014/1/9 5:10,4.3,16,4.4,16,7.7,16
2014/1/9 5:11,4.3,16,4.4,16,5,16
2014/1/9 5:12,4,16,4.3,16,6.5,14
2014/1/9 5:13,4,16,4.1,16,7.4,15
2014/1/9 5:14,3.8,16,4,16,8.9,14
2014/1/9 5:15,3.9,16,3.9,16,9.1,16
2014/1/9 5:16,4.1,16,4.1,16,9.4,15
2014/1/9 5:17,4.3,15,4.3,16,9.3,14
2014/1/9 5:18,4.3,15,4.3,16,6.5,16
2014/1/9 5:19,4.3,15,4.3,16,6.2,16
2014/1/9 5:20,4.2,15,4.3,16,5.8,16
2014/1/9 5:21,4.3,15,4.3,16,8.6,16
2014/1/9 5:22,4.4,15,4.4,15,7.6,15
2014/1/9 5:23,4.4,15,4.4,15,9,15
2014/1/9 5:24,4.4,15,4.4,15,8.7,15
2014/1/9 5:25,4.4,15,4.4,15,10.9,15
2014/1/9 5:26,4.3,15,4.4,15,9.2,15
2014/1/9 5:27,4.3,15,4.4,15,9.2,15
2014/1/9 5:28,4.4,15,4.4,15,7.8,16
2014/1/9 5:29,4.5,15,4.5,16,8.2,14
2014/1/9 5:30,4.9,15,4.9,15,10.2,15
2014/1/9 5:31,4.9,15,4.9,15,8.3,16
2014/1/9 5:32,5.1,15,5.2,15,12.6,15
2014/1/9 5:33,5.1,16,5.1,15,6.7,16
2014/1/9 5:34,5.2,15,5.2,15,10.8,15
2014/1/9 5:35,5.4,15,5.4,15,11.7,14
2014/1/9 5:36,5.4,15,5.4,15,7.6,15
2014/1/9 5:37,5.6,15,5.6,15,10,15
2014/1/9 5:38,5.8,15,5.8,15,14,15
2014/1/9 5:39,6.2,15,6.2,15,14,16
2014/1/9 5:40,6.1,15,6.1,15,8.7,15
2014/1/9 5:41,6.1,15,6.2,15,7.8,16
2014/1/9 5:42,6.1,15,6.2,15,9.4,16
2014/1/9 5:43,6.3,15,6.3,15,10.5,15
2014/1/9 5:44,6.4,15,6.5,15,9.1,15
2014/1/9 5:45,6.1,15,6.3,15,7.7,14
2014/1/9 5:46,6.3,15,6.3,15,9.3,16
2014/1/9 5:47,6,15,6.3,15,6.3,16
2014/1/9 5:48,5.9,15,6.1,15,13.3,16
2014/1/9 5:49,5.7,15,5.9,15,10.2,15
2014/1/9 5:50,5.6,15,5.7,15,10.5,13
2014/1/9 5:51,5.9,15,5.9,15,12.4,15
2014/1/9 5:52,5.9,15,5.9,15,9.8,15
2014/1/9 5:53,5.9,15,5.9,15,13,15
2014/1/9 5:54,5.9,15,5.9,15,12.1,16
2014/1/9 5:55,6,15,6,15,8.2,16
2014/1/9 5:56,5.9,15,5.9,15,8.6,16
2014/1/9 5:57,5.9,15,5.9,15,7.6,15
2014/1/9 5:58,6,15,6,15,12.7,16
2014/1/9 5:59,5.8,15,6,15,10.3,16
2014/1/9 6:00,6.1,15,6.1,15,9.4,15
2014/1/9 6:01,5.9,15,6.1,15,11,16
2014/1/9 6:02,5.9,15,6,15,10.7,16
2014/1/9 6:03,5.8,15,6,15,8.3,16
2014/1/9 6:04,5.7,15,5.7,15,10.9,16
2014/1/9 6:05,5.6,15,5.8,15,9.1,15
2014/1/9 6:06,5.7,15,5.7,15,7,14
2014/1/9 6:07,5.7,15,5.8,15,6.1,15
2014/1/9 6:08,5.3,15,5.7,15,6.8,12
2014/1/9 6:09,5.2,15,5.3,15,7.2,13
2014/1/9 6:10,4.9,15,5.2,15,5.8,12
2014/1/9 6:11,4.9,14,4.9,15,9.7,15
2014/1/9 6:12,4.7,14,4.9,15,8.4,13
2014/1/9 6:13,4.5,14,4.7,15,5.2,14
2014/1/9 6:14,4.1,14,4.5,15,5.1,14
2014/1/9 6:15,3.7,14,4.1,15,3.8,15
2014/1/9 6:16,3.5,14,3.7,15,5.5,16
2014/1/9 6:17,3.3,14,3.5,15,5.1,15
2014/1/9 6:18,3.2,15,3.3,15,2.7,16
2014/1/9 6:19,3.2,15,3.2,15,6,16
2014/1/9 6:20,3.1,15,3.2,15,5.5,16
2014/1/9 6:21,2.9,15,3.1,14,5.4,16
2014/1/9 6:22,2.8,16,2.9,14,4.9,16
2014/1/9 6:23,2.8,16,2.8,14,5.1,15
2014/1/9 6:24,2.9,16,2.9,14,4.2,16
2014/1/9 6:25,2.9,16,2.9,14,3.1,15
2014/1/9 6:26,2.7,16,2.9,14,2.6,1
2014/1/9 6:27,2.6,16,2.7,14,1.5,6
2014/1/9 6:28,2.6,1,2.6,15,2.7,4
2014/1/9 6:29,2.5,1,2.7,15,3,5
2014/1/9 6:30,2.3,2,2.5,15,2.1,5
2014/1/9 6:31,2,2,2.3,15,1.9,1
2014/1/9 6:32,1.9,2,2,16,1.9,16
2014/1/9 6:33,1.6,2,1.8,16,1.5,1
2014/1/9 6:34,1.5,2,1.6,16,1.9,16
2014/1/9 6:35,1.4,2,1.4,16,1.6,15
2014/1/9 6:36,1.3,2,1.4,16,1.3,14
2014/1/9 6:37,1.3,1,1.3,1,1,13
2014/1/9 6:38,1.3,16,1.3,1,1.3,12
2014/1/9 6:39,1.2,15,1.2,1,1.8,12
2014/1/9 6:40,1.3,14,1.3,2,2.4,12
2014/1/9 6:41,1.3,14,1.3,2,2.2,12
2014/1/9 6:42,1.3,13,1.3,2,2.4,8
2014/1/9 6:43,1.4,13,1.4,2,3,12
2014/1/9 6:44,1.4,12,1.4,2,2.6,12
2014/1/9 6:45,1.4,12,1.4,2,3.6,11
2014/1/9 6:46,1.5,12,1.5,12,2.5,12
2014/1/9 6:47,1.6,12,1.6,12,2.6,15
2014/1/9 6:48,1.6,12,1.6,12,2.7,12
2014/1/9 6:49,1.8,12,1.8,12,4.5,13
2014/1/9 6:50,1.8,12,1.8,12,3.6,12
2014/1/9 6:51,1.9,13,1.9,13,4.7,14
2014/1/9 6:52,2,13,2,13,3.3,14
2014/1/9 6:53,2.1,13,2.1,13,3.9,11
2014/1/9 6:54,2.2,13,2.2,13,3.6,12
2014/1/9 6:55,2.3,13,2.3,13,4.1,14
2014/1/9 6:56,2.3,13,2.3,13,3.2,14
2014/1/9 6:57,2.3,13,2.3,13,3.3,13
2014/1/9 6:58,2.3,13,2.3,13,2.5,13
2014/1/9 6:59,2.2,13,2.3,13,3.5,14
2014/1/9 7:00,2.1,13,2.1,13,2.6,13
2014/1/9 7:01,2,13,2.1,13,2.6,13
2014/1/9 7:02,1.9,13,2,13,1.4,1
2014/1/9 7:03,1.7,14,1.8,13,1.1,16
2014/1/9 7:04,1.6,14,1.6,13,3.5,1
2014/1/9 7:05,1.5,14,1.6,13,3.5,13
2014/1/9 7:06,1.5,14,1.5,13,2.7,15
2014/1/9 7:07,1.4,14,1.5,13,1.5,16
2014/1/9 7:08,1.4,15,1.4,13,1.8,1
2014/1/9 7:09,1.4,15,1.4,13,2.7,14
2014/1/9 7:10,1.5,15,1.5,13,3.3,14
2014/1/9 7:11,1.7,15,1.7,13,4.3,15
2014/1/9 7:12,1.8,15,1.8,14,3.5,15
2014/1/9 7:13,2,15,2,15,2.7,16
2014/1/9 7:14,2,15,2,15,2.7,16
2014/1/9 7:15,2,15,2,15,3.7,15
2014/1/9 7:16,2,15,2,15,3.5,16
2014/1/9 7:17,2.2,15,2.2,15,3.2,15
2014/1/9 7:18,2.3,15,2.3,15,3.2,15
2014/1/9 7:19,2.3,15,2.3,15,3,15
2014/1/9 7:20,2.3,15,2.3,15,3.2,15
2014/1/9 7:21,2.2,15,2.3,15,2.7,16
2014/1/9 7:22,2.1,15,2.2,15,2.1,16
2014/1/9 7:23,2,15,2.1,15,1.8,14
2014/1/9 7:24,1.9,15,2,15,1.6,16
2014/1/9 7:25,1.8,16,1.9,15,1.8,3
2014/1/9 7:26,1.8,16,1.8,15,1.9,3
2014/1/9 7:27,1.7,16,1.8,15,1.9,3
2014/1/9 7:28,1.6,16,1.7,15,1.8,2
2014/1/9 7:29,1.4,1,1.6,15,1.3,2
2014/1/9 7:30,1.3,1,1.4,15,1.9,15
2014/1/9 7:31,1.3,1,1.3,15,2.1,15
2014/1/9 7:32,1.2,1,1.3,15,1.9,16
2014/1/9 7:33,1.2,1,1.2,15,1.5,15
2014/1/9 7:34,1.2,1,1.2,15,1.8,15
2014/1/9 7:35,1.3,16,1.3,16,2.5,16
2014/1/9 7:36,1.4,16,1.4,16,2.7,16
2014/1/9 7:37,1.5,16,1.5,16,2.9,16
2014/1/9 7:38,1.5,16,1.5,1,2.5,15
2014/1/9 7:39,1.6,15,1.6,16,2.5,15
2014/1/9 7:40,1.6,15,1.6,16,2.2,16
2014/1/9 7:41,1.6,15,1.6,16,2.1,16
2014/1/9 7:42,1.6,15,1.6,16,2.9,16
2014/1/9 7:43,1.6,15,1.6,16,2.4,16
2014/1/9 7:44,1.6,16,1.6,16,2.2,16
2014/1/9 7:45,1.7,16,1.7,16,2.7,1
2014/1/9 7:46,1.6,16,1.7,16,2.2,1
2014/1/9 7:47,1.6,16,1.6,16,2.7,2
2014/1/9 7:48,1.6,16,1.6,16,2.7,1
2014/1/9 7:49,1.7,16,1.7,16,3.1,16
2014/1/9 7:50,1.7,16,1.7,16,3,1
2014/1/9 7:51,1.8,1,1.8,1,2.9,16
2014/1/9 7:52,1.9,1,1.9,1,2.9,16
2014/1/9 7:53,1.9,1,1.9,1,2.9,16
2014/1/9 7:54,2,1,2,1,2.6,16
2014/1/9 7:55,1.9,1,2,1,2.2,16
2014/1/9 7:56,1.8,1,1.9,1,1.4,1
2014/1/9 7:57,1.8,1,1.8,1,2,3
2014/1/9 7:58,1.6,1,1.8,1,1.1,3
2014/1/9 7:59,1.5,1,1.6,1,1,3
2014/1/9 8:00,1.3,1,1.5,1,1,3
2014/1/9 8:01,1.3,1,1.3,1,1.8,3
2014/1/9 8:02,1.1,2,1.3,1,1.1,4
2014/1/9 8:03,1,2,1.1,1,1.3,3
2014/1/9 8:04,0.9,2,1,1,0.6,3
2014/1/9 8:05,0.8,3,0.9,16,0.6,5
2014/1/9 8:06,0.7,3,0.7,1,0.5,8
2014/1/9 8:07,0.7,3,0.7,1,2.4,9
2014/1/9 8:08,0.8,4,0.8,1,2.2,9
2014/1/9 8:09,0.9,5,0.9,1,2.5,9
2014/1/9 8:10,1,6,1,1,2,9
2014/1/9 8:11,1,7,1,1,2.2,9
2014/1/9 8:12,1,8,1,2,2.1,9
2014/1/9 8:13,1.1,8,1.1,8,2,9
2014/1/9 8:14,1.1,8,1.1,8,1.3,8
2014/1/9 8:15,1.2,9,1.2,8,1.1,8
2014/1/9 8:16,1.3,9,1.3,9,1.3,8
2014/1/9 8:17,1.2,9,1.3,9,1,9
2014/1/9 8:18,1.1,8,1.2,9,0.6,8
2014/1/9 8:19,0.9,8,1,9,0.5,8
2014/1/9 8:20,0.8,8,0.9,9,0,8
2014/1/9 8:21,0.6,8,0.7,9,0,9
2014/1/9 8:22,0.5,8,0.6,9,0.1,5
2014/1/9 8:23,0.4,8,0.5,9,0.5,6
2014/1/9 8:24,0.3,8,0.4,9,0.9,6
2014/1/9 8:25,0.3,8,0.3,9,0.6,6
2014/1/9 8:26,0.2,8,0.3,9,1.5,8
2014/1/9 8:27,0.3,8,0.3,9,1.8,8
2014/1/9 8:28,0.4,8,0.4,8,2.4,8
2014/1/9 8:29,0.5,8,0.5,8,1.9,7
2014/1/9 8:30,0.6,7,0.6,8,1,7
2014/1/9 8:31,0.6,7,0.6,8,0.4,5
2014/1/9 8:32,0.6,7,0.6,7,1.5,10
2014/1/9 8:33,0.8,8,0.8,8,1.8,10
2014/1/9 8:34,0.9,8,0.9,8,2.7,10
2014/1/9 8:35,1.1,8,1.1,8,3,10
2014/1/9 8:36,1.3,9,1.3,9,3,10
2014/1/9 8:37,1.3,9,1.3,9,2.4,9
2014/1/9 8:38,1.2,9,1.3,9,2,10
2014/1/9 8:39,1.2,10,1.2,9,1.9,10
2014/1/9 8:40,1.3,10,1.3,9,2.1,10
2014/1/9 8:41,1.4,10,1.4,10,3.1,9
2014/1/9 8:42,1.6,10,1.6,10,3,10
2014/1/9 8:43,1.7,10,1.7,10,3.2,10
2014/1/9 8:44,1.7,10,1.7,10,2.7,10
2014/1/9 8:45,1.6,10,1.6,10,2.6,10
2014/1/9 8:46,1.6,10,1.6,10,2.9,9
2014/1/9 8:47,1.7,10,1.7,10,3,10
2014/1/9 8:48,1.7,10,1.7,10,2.7,10
2014/1/9 8:49,1.8,10,1.8,10,2.6,10
2014/1/9 8:50,1.8,10,1.8,10,2.9,10
2014/1/9 8:51,1.8,10,1.8,10,2.4,10
2014/1/9 8:52,1.7,10,1.8,10,1.3,11
2014/1/9 8:53,1.5,10,1.6,10,1,8
2014/1/9 8:54,1.5,10,1.5,10,2.1,11
2014/1/9 8:55,1.5,10,1.5,10,2.9,9
2014/1/9 8:56,1.4,10,1.5,10,2,11
2014/1/9 8:57,1.4,10,1.4,10,3.8,12
2014/1/9 8:58,1.3,10,1.4,10,2.9,10
2014/1/9 8:59,1.3,10,1.4,10,2.2,9
2014/1/9 9:00,1.3,10,1.3,10,2.5,9
2014/1/9 9:01,1.2,10,1.2,10,1.5,8
2014/1/9 9:02,1.2,10,1.2,10,2,9
2014/1/9 9:03,1.3,10,1.3,10,2,13
2014/1/9 9:04,1.3,10,1.3,10,3.1,12
2014/1/9 9:05,1.2,11,1.3,10,2,10
2014/1/9 9:06,1.2,11,1.2,10,1.4,16
2014/1/9 9:07,1.1,11,1.2,10,2,11
2014/1/9 9:08,1.2,11,1.2,10,3.2,11
2014/1/9 9:09,1.2,11,1.2,10,2.6,9
2014/1/9 9:10,1.1,11,1.2,10,1.1,11
2014/1/9 9:11,1.1,11,1.1,10,1.9,9
2014/1/9 9:12,1.1,12,1.1,10,1.9,12
2014/1/9 9:13,1.2,12,1.2,10,2.4,13
2014/1/9 9:14,1.1,12,1.1,10,1.4,13
2014/1/9 9:15,1,12,1.1,11,1.4,11
2014/1/9 9:16,1.1,12,1.1,11,2,11
2014/1/9 9:17,1.1,12,1.1,11,1.9,11
2014/1/9 9:18,1,12,1.1,11,1.8,15
2014/1/9 9:19,0.9,12,1,11,1.1,15
2014/1/9 9:20,0.9,12,0.9,12,1.3,11
2014/1/9 9:21,1,12,1,12,2.6,14
2014/1/9 9:22,1.1,12,1.1,12,2,12
2014/1/9 9:23,1,12,1.1,12,1.6,6
2014/1/9 9:24,1,12,1,12,1.6,6
2014/1/9 9:25,1,12,1,12,1.1,10
2014/1/9 9:26,0.9,12,1,12,1.1,8
2014/1/9 9:27,0.9,12,0.9,12,1.3,11
2014/1/9 9:28,0.9,12,0.9,12,1.1,11
2014/1/9 9:29,0.9,11,0.9,12,3.7,5
2014/1/9 9:30,1,10,1,12,3.1,5
2014/1/9 9:31,0.9,9,1,12,2.7,10
2014/1/9 9:32,1,8,1,12,3.9,9
2014/1/9 9:33,1.1,8,1.1,8,1.9,8
2014/1/9 9:34,1,8,1,8,1,3
2014/1/9 9:35,1.1,6,1.1,8,2.7,3
2014/1/9 9:36,1.3,6,1.3,6,4.1,5
2014/1/9 9:37,1.4,5,1.4,6,3.2,7
2014/1/9 9:38,1.5,5,1.5,5,2.1,6
2014/1/9 9:39,1.5,5,1.5,5,3.3,4
2014/1/9 9:40,1.4,5,1.5,5,3,5
2014/1/9 9:41,1.6,5,1.6,5,4.4,7
2014/1/9 9:42,1.5,5,1.6,5,3,11
2014/1/9 9:43,1.8,5,1.8,5,6,10
2014/1/9 9:44,2,6,2,6,4.9,10
2014/1/9 9:45,2,7,2,6,2,11
2014/1/9 9:46,1.8,7,2,6,1.9,16
2014/1/9 9:47,1.9,5,1.9,6,2.9,2
2014/1/9 9:48,1.9,3,1.9,6,2.5,2
2014/1/9 9:49,1.8,1,1.9,6,1.8,2
2014/1/9 9:50,1.8,16,1.9,6,1.9,15
2014/1/9 9:51,1.6,16,1.8,6,1.5,1
2014/1/9 9:52,1.6,16,1.6,6,3.5,14
2014/1/9 9:53,1.4,16,1.6,6,3.7,15
2014/1/9 9:54,1.3,16,1.4,6,3,15
2014/1/9 9:55,1.3,16,1.3,7,1.9,15
2014/1/9 9:56,1.4,16,1.4,6,3.1,15
2014/1/9 9:57,1.3,16,1.3,5,3,10
2014/1/9 9:58,1.4,15,1.4,2,3.2,12
2014/1/9 9:59,1.4,14,1.4,16,2.5,10
2014/1/9 10:00,1.5,13,1.5,16,2.2,12
2014/1/9 10:01,1.5,13,1.5,16,2.2,12
2014/1/9 10:02,1.4,13,1.5,16,1.5,9
2014/1/9 10:03,1.4,12,1.4,13,2.7,8
2014/1/9 10:04,1.4,11,1.4,13,2.5,6
2014/1/9 10:05,1.4,10,1.4,13,1.6,6
2014/1/9 10:06,1.3,10,1.4,13,1.3,14
2014/1/9 10:07,1.2,11,1.3,13,1.1,14
2014/1/9 10:08,1.1,11,1.2,13,2.1,2
2014/1/9 10:09,1,11,1.1,13,1.5,2
2014/1/9 10:10,1,4,1,13,2,2
2014/1/9 10:11,0.9,4,1,13,1.5,2
2014/1/9 10:12,1.1,4,1.1,13,3.2,6
2014/1/9 10:13,1.1,4,1.1,12,3,9
2014/1/9 10:14,1.1,4,1.1,11,3.6,5
2014/1/9 10:15,1,3,1.1,10,1.5,3
2014/1/9 10:16,1,3,1,10,1.5,11
2014/1/9 10:17,1.1,3,1.1,11,2.4,15
2014/1/9 10:18,1.1,4,1.1,11,2.7,8
2014/1/9 10:19,1.1,4,1.1,4,2.7,6
2014/1/9 10:20,1.2,5,1.2,5,2.5,12
2014/1/9 10:21,1.4,7,1.4,7,4.5,12
2014/1/9 10:22,1.4,10,1.5,9,3.1,12
2014/1/9 10:23,1.3,12,1.4,9,2.2,13
2014/1/9 10:24,1.4,12,1.4,9,4.1,13
2014/1/9 10:25,1.6,12,1.6,12,4.3,10
2014/1/9 10:26,1.8,11,1.8,11,7.4,9
2014/1/9 10:27,2.1,11,2.1,11,7.4,10
2014/1/9 10:28,2.3,11,2.3,11,6.2,10
2014/1/9 10:29,2.5,11,2.5,11,4.9,11
2014/1/9 10:30,2.5,11,2.5,11,3.1,10
2014/1/9 10:31,2.6,11,2.6,11,9.5,13
2014/1/9 10:32,2.6,11,2.6,11,7.9,12
2014/1/9 10:33,2.8,11,2.8,11,5.7,12
2014/1/9 10:34,2.8,11,2.8,11,4.7,10
2014/1/9 10:35,3.1,12,3.1,12,7.4,13
2014/1/9 10:36,3.2,12,3.2,12,7,13
2014/1/9 10:37,2.9,12,3.2,12,4.3,10
2014/1/9 10:38,2.9,12,2.9,12,5.8,10
2014/1/9 10:39,2.9,12,2.9,12,5.4,14
2014/1/9 10:40,3,12,3.1,12,6.7,13
2014/1/9 10:41,2.9,13,3.1,12,5.4,12
2014/1/9 10:42,3,13,3,12,5.8,13
2014/1/9 10:43,3,13,3.1,12,6.9,14
2014/1/9 10:44,3,13,3,12,3.7,10
2014/1/9 10:45,2.8,13,3,12,4.4,12
2014/1/9 10:46,2.5,13,2.7,12,2.5,13
2014/1/9 10:47,2.6,13,2.6,12,4.5,12
2014/1/9 10:48,2.6,13,2.6,12,4.4,12
2014/1/9 10:49,2.6,14,2.7,12,4.3,15
2014/1/9 10:50,2.4,14,2.6,12,2.7,1
2014/1/9 10:51,2.6,14,2.6,13,6.3,15
2014/1/9 10:52,2.9,14,2.9,13,11.9,15
2014/1/9 10:53,3.4,15,3.4,15,10.5,16
2014/1/9 10:54,3.9,15,3.9,15,12.4,16
2014/1/9 10:55,4.4,15,4.4,15,11.8,15
2014/1/9 10:56,4.9,15,4.9,15,10.8,15
2014/1/9 10:57,4.9,16,4.9,15,6,15
2014/1/9 10:58,5,16,5,16,8.3,16
2014/1/9 10:59,4.9,16,5,16,5.2,14
2014/1/9 11:00,5.2,16,5.2,16,8.1,16
2014/1/9 11:01,5.1,16,5.2,16,5.5,1
2014/1/9 11:02,4.7,16,5.1,16,5.6,16
2014/1/9 11:03,4.3,16,4.7,16,5,15
2014/1/9 11:04,3.8,16,4.3,16,3.8,15
2014/1/9 11:05,3.3,16,3.7,16,4.4,2
2014/1/9 11:06,3.1,16,3.3,16,8.6,2
2014/1/9 11:07,3.2,1,3.2,16,7.7,2
2014/1/9 11:08,3.2,1,3.2,16,9.1,16
2014/1/9 11:09,3.5,1,3.5,16,9.7,2
2014/1/9 11:10,3.6,1,3.6,16,8.7,15
2014/1/9 11:11,4,1,4,16,8.7,1
2014/1/9 11:12,4.1,1,4.2,16,7.9,16
2014/1/9 11:13,4.3,1,4.3,16,9.5,14
2014/1/9 11:14,4.7,1,4.7,1,10.5,2
2014/1/9 11:15,5.1,1,5.1,1,10.7,1
2014/1/9 11:16,5.3,1,5.4,1,10.8,16
2014/1/9 11:17,5.6,1,5.6,16,13.1,15
2014/1/9 11:18,5.8,1,5.8,1,12.6,16
2014/1/9 11:19,6.1,16,6.1,1,14.2,15
2014/1/9 11:20,6.2,16,6.3,16,8.7,1
2014/1/9 11:21,6.3,16,6.3,16,17.8,16
2014/1/9 11:22,6.6,16,6.6,16,15.1,16
2014/1/9 11:23,6.7,16,6.8,16,10.8,16
2014/1/9 11:24,6.5,1,6.7,16,7.5,16
2014/1/9 11:25,6.7,16,6.7,16,12.6,16
2014/1/9 11:26,6.9,16,6.9,16,15.1,16
2014/1/9 11:27,7.1,16,7.1,16,13.1,16
2014/1/9 11:28,6.8,16,7.1,16,10.1,16
2014/1/9 11:29,6.4,16,6.7,16,9,16
2014/1/9 11:30,6.4,16,6.4,16,12.7,1
2014/1/9 11:31,6.4,16,6.5,16,13.1,1
2014/1/9 11:32,6.2,16,6.4,16,11.8,1
2014/1/9 11:33,6.3,16,6.3,16,15.1,15
2014/1/9 11:34,6.7,16,6.7,16,14.7,15
2014/1/9 11:35,6.5,16,6.7,16,10.7,16
2014/1/9 11:36,6.1,16,6.4,16,9.4,15
2014/1/9 11:37,6.1,16,6.1,16,16,16
2014/1/9 11:38,6.7,16,6.7,16,16.2,16
2014/1/9 11:39,6.7,16,6.8,16,11.9,16